| time (UTC) | temp F | wind direction | speed MPH | gust MPH | rain 1hr in | rain 24hr in | rain mn in | humidity % | barometer mb |
| 20260509102512 | 61 | 85 | 0.0 | 0.0 | 0.00 | 0.00 | 0.00 | 60 | 1018.1 |
| 20260509102204 | 61 | 84 | 0.0 | 1.0 | 0.00 | 0.00 | 0.00 | 61 | 1019.2 |
| 20260509101705 | 60 | 70 | 0.0 | 5.0 | 0.00 | 0.00 | 0.00 | 61 | 1019.3 |
| 20260509101512 | 60 | 87 | 0.0 | 6.0 | 0.00 | 0.00 | 0.00 | 61 | 1018.2 |
| 20260509101204 | 60 | 80 | 0.0 | 7.0 | 0.00 | 0.00 | 0.00 | 62 | 1019.3 |
| 20260509100704 | 60 | 95 | 1.0 | 8.0 | 0.00 | 0.00 | 0.00 | 61 | 1019.3 |
| 20260509100204 | 61 | 29 | 1.0 | 9.0 | 0.00 | 0.00 | 0.00 | 61 | 1019.4 |
| 20260509095704 | 61 | 73 | 0.0 | 5.0 | 0.00 | 0.00 | 0.00 | 59 | 1019.3 |
| 20260509095512 | 62 | 81 | 1.0 | 10.0 | 0.00 | 0.00 | 0.00 | 59 | 1018.3 |
| 20260509095205 | 62 | 79 | 2.0 | 10.0 | 0.00 | 0.00 | 0.00 | 60 | 1019.3 |
| 20260509094704 | 61 | 147 | 0.0 | 5.0 | 0.00 | 0.00 | 0.00 | 61 | 1019.3 |
| 20260509094512 | 61 | 85 | 0.0 | 2.0 | 0.00 | 0.00 | 0.00 | 62 | 1018.3 |
| 20260509094205 | 60 | 162 | 0.0 | 2.0 | 0.00 | 0.00 | 0.00 | 63 | 1019.3 |
| 20260509093705 | 60 | 98 | 0.0 | 1.0 | 0.00 | 0.00 | 0.00 | 63 | 1019.4 |
| 20260509093512 | 60 | 106 | 0.0 | 7.0 | 0.00 | 0.00 | 0.00 | 62 | 1018.4 |
| 20260509093205 | 60 | 107 | 1.0 | 7.0 | 0.00 | 0.00 | 0.00 | 63 | 1019.4 |
| 20260509092705 | 60 | 106 | 0.0 | 2.0 | 0.00 | 0.00 | 0.00 | 62 | 1019.4 |
| 20260509092512 | 60 | 88 | 0.0 | 2.0 | 0.00 | 0.00 | 0.00 | 61 | 1018.4 |
| 20260509092204 | 61 | 99 | 0.0 | 1.0 | 0.00 | 0.00 | 0.00 | 61 | 1019.5 |
| 20260509091704 | 60 | 121 | 0.0 | 0.0 | 0.00 | 0.00 | 0.00 | 64 | 1019.5 |
| 20260509091204 | 60 | 97 | 0.0 | 7.0 | 0.00 | 0.00 | 0.00 | 65 | 1019.5 |
| 20260509090705 | 59 | 87 | 0.0 | 8.0 | 0.00 | 0.00 | 0.00 | 64 | 1019.5 |
| 20260509090512 | 59 | 96 | 0.0 | 8.0 | 0.00 | 0.00 | 0.00 | 62 | 1018.5 |
| 20260509090204 | 60 | 93 | 0.0 | 2.0 | 0.00 | 0.00 | 0.00 | 63 | 1019.5 |
| 20260509085704 | 59 | 117 | 0.0 | 2.0 | 0.00 | 0.00 | 0.00 | 64 | 1019.5 |
| 20260509085512 | 59 | 70 | 0.0 | 2.0 | 0.00 | 0.00 | 0.00 | 65 | 1018.5 |
| 20260509085204 | 59 | 68 | 1.0 | 10.0 | 0.00 | 0.00 | 0.00 | 64 | 1019.5 |
| 20260509084704 | 59 | 105 | 0.0 | 1.0 | 0.00 | 0.00 | 0.00 | 65 | 1019.5 |
| 20260509084513 | 59 | 81 | 0.0 | 0.0 | 0.00 | 0.00 | 0.00 | 64 | 1018.6 |
| 20260509084204 | 58 | 120 | 0.0 | 0.0 | 0.00 | 0.00 | 0.00 | 69 | 1019.6 |
| 20260509083705 | 58 | 112 | 0.0 | 3.0 | 0.00 | 0.00 | 0.00 | 67 | 1019.6 |
| 20260509083512 | 58 | 104 | 0.0 | 4.0 | 0.00 | 0.00 | 0.00 | 66 | 1018.6 |
| 20260509083204 | 58 | 85 | 0.0 | 1.0 | 0.00 | 0.00 | 0.00 | 64 | 1019.6 |
| 20260509082204 | 58 | 81 | 0.0 | 1.0 | 0.00 | 0.00 | 0.00 | 66 | 1019.7 |
| 20260509081704 | 59 | 105 | 0.0 | 3.0 | 0.00 | 0.00 | 0.00 | 66 | 1019.6 |
| 20260509081513 | 59 | 121 | 0.0 | 3.0 | 0.00 | 0.00 | 0.00 | 66 | 1018.7 |
| 20260509081204 | 58 | 91 | 0.0 | 1.0 | 0.00 | 0.00 | 0.00 | 69 | 1019.7 |
| 20260509080704 | 58 | 68 | 0.0 | 1.0 | 0.00 | 0.00 | 0.00 | 68 | 1019.7 |
| 20260509080512 | 58 | 55 | 0.0 | 1.0 | 0.00 | 0.00 | 0.00 | 68 | 1018.7 |
| 20260509080205 | 58 | 79 | 0.0 | 3.0 | 0.00 | 0.00 | 0.00 | 68 | 1019.7 |
| 20260509075704 | 58 | 110 | 0.0 | 3.0 | 0.00 | 0.00 | 0.00 | 68 | 1019.7 |
| 20260509075512 | 58 | 92 | 0.0 | 8.0 | 0.00 | 0.00 | 0.00 | 67 | 1018.8 |
| 20260509075205 | 58 | 117 | 1.0 | 8.0 | 0.00 | 0.00 | 0.00 | 68 | 1019.8 |
| 20260509074704 | 58 | 82 | 0.0 | 8.0 | 0.00 | 0.00 | 0.00 | 70 | 1019.8 |
| 20260509074511 | 58 | 49 | 0.0 | 8.0 | 0.00 | 0.00 | 0.00 | 70 | 1018.8 |
| 20260509074204 | 58 | 95 | 0.0 | 3.0 | 0.00 | 0.00 | 0.00 | 69 | 1019.8 |
| 20260509073704 | 58 | 91 | 1.0 | 9.0 | 0.00 | 0.00 | 0.00 | 71 | 1019.7 |
| 20260509073512 | 57 | 97 | 0.0 | 11.0 | 0.00 | 0.00 | 0.00 | 72 | 1018.6 |
| 20260509073204 | 57 | 77 | 1.0 | 12.0 | 0.00 | 0.00 | 0.00 | 71 | 1019.7 |
| 20260509072704 | 57 | 73 | 0.0 | 9.0 | 0.00 | 0.00 | 0.00 | 72 | 1019.7 |
| 20260509072512 | 57 | 79 | 0.0 | 9.0 | 0.00 | 0.00 | 0.00 | 73 | 1018.7 |
| 20260509071704 | 57 | 62 | 1.0 | 6.0 | 0.00 | 0.00 | 0.00 | 74 | 1019.9 |
| 20260509071512 | 57 | 96 | 0.0 | 6.0 | 0.00 | 0.00 | 0.00 | 75 | 1018.8 |
| 20260509071204 | 57 | 84 | 0.0 | 0.0 | 0.00 | 0.00 | 0.00 | 75 | 1019.9 |
| 20260509070512 | 56 | 112 | 0.0 | 1.0 | 0.00 | 0.00 | 0.00 | 75 | 1018.8 |
| 20260509065513 | 55 | 85 | 1.0 | 4.0 | 0.00 | 0.00 | 0.00 | 76 | 1018.8 |
| 20260509065204 | 55 | 81 | 0.0 | 3.0 | 0.00 | 0.00 | 0.00 | 77 | 1019.9 |
| 20260509064704 | 55 | 96 | 0.0 | 2.0 | 0.00 | 0.00 | 0.00 | 78 | 1019.9 |
| 20260509064512 | 55 | 74 | 0.0 | 2.0 | 0.00 | 0.00 | 0.00 | 77 | 1018.8 |
| 20260509063512 | 54 | 54 | 0.0 | 2.0 | 0.00 | 0.00 | 0.00 | 79 | 1018.7 |
| 20260509063204 | 54 | 90 | 0.0 | 2.0 | 0.00 | 0.00 | 0.00 | 79 | 1019.8 |
| 20260509062704 | 54 | 89 | 0.0 | 1.0 | 0.00 | 0.00 | 0.00 | 81 | 1019.7 |
| 20260509062204 | 53 | 90 | 0.0 | 1.0 | 0.00 | 0.00 | 0.00 | 82 | 1019.7 |
| 20260509061705 | 53 | 65 | 0.0 | 1.0 | 0.00 | 0.00 | 0.00 | 82 | 1019.7 |
| 20260509061512 | 53 | 71 | 0.0 | 0.0 | 0.00 | 0.00 | 0.00 | 82 | 1018.5 |
| 20260509061204 | 52 | 70 | 0.0 | 0.0 | 0.00 | 0.00 | 0.00 | 82 | 1019.7 |
| 20260509060704 | 52 | 87 | 0.0 | 3.0 | 0.00 | 0.00 | 0.00 | 82 | 1019.8 |
| 20260509060512 | 52 | 75 | 0.0 | 1.0 | 0.00 | 0.00 | 0.00 | 83 | 1018.7 |
| 20260509055704 | 52 | 87 | 0.0 | 0.0 | 0.00 | 0.00 | 0.00 | 83 | 1019.8 |
| 20260509055512 | 51 | 81 | 0.0 | 0.0 | 0.00 | 0.00 | 0.00 | 83 | 1018.7 |
| 20260509055204 | 51 | 58 | 0.0 | 3.0 | 0.00 | 0.00 | 0.00 | 83 | 1019.8 |
| 20260509054703 | 51 | 89 | 0.0 | 0.0 | 0.00 | 0.00 | 0.00 | 83 | 1019.8 |
| 20260509054512 | 51 | 97 | 0.0 | 0.0 | 0.00 | 0.00 | 0.00 | 83 | 1018.6 |
| 20260509053704 | 51 | 83 | 0.0 | 0.0 | 0.00 | 0.00 | 0.00 | 84 | 1019.8 |
| 20260509053512 | 50 | 88 | 0.0 | 1.0 | 0.00 | 0.00 | 0.00 | 84 | 1018.6 |
| 20260509053204 | 50 | 60 | 0.0 | 1.0 | 0.00 | 0.00 | 0.00 | 84 | 1019.7 |
| 20260509052704 | 50 | 92 | 0.0 | 0.0 | 0.00 | 0.00 | 0.00 | 85 | 1019.7 |
| 20260509052512 | 50 | 89 | 0.0 | 0.0 | 0.00 | 0.00 | 0.00 | 85 | 1018.6 |
| 20260509052204 | 50 | 67 | 0.0 | 0.0 | 0.00 | 0.00 | 0.00 | 85 | 1019.7 |
| 20260509051704 | 49 | 77 | 0.0 | 0.0 | 0.00 | 0.00 | 0.00 | 86 | 1019.7 |
| 20260509051512 | 49 | 56 | 0.0 | 0.0 | 0.00 | 0.00 | 0.00 | 86 | 1018.6 |
| 20260509050706 | 49 | 52 | 0.0 | 1.0 | 0.00 | 0.00 | 0.00 | 87 | 1019.7 |
| 20260509050512 | 49 | 59 | 0.0 | 0.0 | 0.00 | 0.00 | 0.00 | 87 | 1018.6 |
| 20260509045512 | 48 | 69 | 0.0 | 0.0 | 0.00 | 0.00 | 0.00 | 88 | 1018.5 |
| 20260509045205 | 48 | 62 | 0.0 | 0.0 | 0.00 | 0.00 | 0.00 | 88 | 1019.7 |
| 20260509044512 | 47 | 50 | 0.0 | 0.0 | 0.00 | 0.00 | 0.00 | 89 | 1018.5 |
| 20260509044205 | 47 | 62 | 0.0 | 0.0 | 0.00 | 0.00 | 0.00 | 89 | 1019.6 |
| 20260509043512 | 47 | 65 | 0.0 | 0.0 | 0.00 | 0.00 | 0.00 | 92 | 1018.5 |
| 20260509043205 | 47 | 71 | 0.0 | 0.0 | 0.00 | 0.00 | 0.00 | 88 | 1019.7 |
| 20260509042706 | 47 | 56 | 0.0 | 0.0 | 0.00 | 0.00 | 0.00 | 88 | 1019.6 |
| 20260509042512 | 47 | 57 | 0.0 | 0.0 | 0.00 | 0.00 | 0.00 | 88 | 1018.5 |
| 20260509042206 | 47 | 57 | 0.0 | 0.0 | 0.00 | 0.00 | 0.00 | 88 | 1019.6 |
| 20260509041706 | 47 | 61 | 0.0 | 0.0 | 0.00 | 0.00 | 0.00 | 87 | 1019.6 |
| 20260509041512 | 47 | 46 | 0.0 | 0.0 | 0.00 | 0.00 | 0.00 | 87 | 1018.5 |
| 20260509040512 | 47 | 82 | 0.0 | 1.0 | 0.00 | 0.00 | 0.00 | 87 | 1018.5 |
| 20260509040206 | 48 | 63 | 0.0 | 1.0 | 0.00 | 0.00 | 0.00 | 87 | 1019.7 |
| 20260509035511 | 48 | 75 | 0.0 | 3.0 | 0.00 | 0.00 | 0.00 | 87 | 1018.6 |
| 20260509035206 | 48 | 46 | 0.0 | 3.0 | 0.00 | 0.00 | 0.00 | 86 | 1019.7 |
| 20260509034512 | 48 | 58 | 0.0 | 0.0 | 0.00 | 0.00 | 0.00 | 86 | 1018.5 |
| 20260509034205 | 48 | 71 | 0.0 | 1.0 | 0.00 | 0.00 | 0.00 | 86 | 1019.6 |
| 20260509033706 | 48 | 73 | 0.0 | 1.0 | 0.00 | 0.00 | 0.00 | 87 | 1019.6 |
| 20260509033511 | 48 | 34 | 0.0 | 0.0 | 0.00 | 0.00 | 0.00 | 87 | 1018.5 |
| 20260509033206 | 48 | 57 | 0.0 | 0.0 | 0.00 | 0.00 | 0.00 | 87 | 1019.7 |
| 20260509032705 | 48 | 70 | 0.0 | 0.0 | 0.00 | 0.00 | 0.00 | 86 | 1019.8 |
| 20260509032512 | 48 | 69 | 0.0 | 0.0 | 0.00 | 0.00 | 0.00 | 86 | 1018.6 |
| 20260509032205 | 48 | 73 | 0.0 | 0.0 | 0.00 | 0.00 | 0.00 | 86 | 1019.8 |
| 20260509031705 | 48 | 76 | 0.0 | 0.0 | 0.00 | 0.00 | 0.00 | 87 | 1019.8 |
| 20260509030705 | 48 | 45 | 0.0 | 0.0 | 0.00 | 0.00 | 0.00 | 87 | 1019.9 |
| 20260509030511 | 48 | 40 | 0.0 | 0.0 | 0.00 | 0.00 | 0.00 | 87 | 1018.7 |
| 20260509030206 | 48 | 34 | 0.0 | 0.0 | 0.00 | 0.00 | 0.00 | 87 | 1019.9 |
| 20260509025706 | 48 | 67 | 0.0 | 0.0 | 0.00 | 0.00 | 0.00 | 87 | 1019.9 |
| 20260509025512 | 48 | 79 | 0.0 | 0.0 | 0.00 | 0.00 | 0.00 | 87 | 1018.8 |
| 20260509024705 | 48 | 42 | 0.0 | 0.0 | 0.00 | 0.00 | 0.00 | 87 | 1020.0 |
| 20260509024512 | 48 | 53 | 0.0 | 1.0 | 0.00 | 0.00 | 0.00 | 87 | 1018.8 |
| 20260509023705 | 48 | 67 | 0.0 | 0.0 | 0.00 | 0.00 | 0.00 | 87 | 1020.0 |
| 20260509023512 | 48 | 71 | 0.0 | 0.0 | 0.00 | 0.00 | 0.00 | 88 | 1018.9 |
| 20260509023205 | 48 | 38 | 0.0 | 0.0 | 0.00 | 0.00 | 0.00 | 88 | 1020.1 |
| 20260509022705 | 48 | 13 | 0.0 | 2.0 | 0.00 | 0.00 | 0.00 | 88 | 1020.0 |
| 20260509022206 | 47 | 36 | 0.0 | 1.0 | 0.00 | 0.00 | 0.00 | 88 | 1020.0 |
| 20260509021705 | 47 | 39 | 0.0 | 0.0 | 0.00 | 0.00 | 0.00 | 88 | 1019.9 |
| 20260509021512 | 47 | 39 | 0.0 | 0.0 | 0.00 | 0.00 | 0.00 | 88 | 1018.8 |
| 20260509021205 | 47 | 39 | 0.0 | 0.0 | 0.00 | 0.00 | 0.00 | 89 | 1019.9 |
| 20260509020706 | 47 | 39 | 0.0 | 0.0 | 0.00 | 0.00 | 0.00 | 89 | 1020.0 |
| 20260509020511 | 47 | 46 | 0.0 | 0.0 | 0.00 | 0.00 | 0.00 | 89 | 1018.8 |
| 20260509020205 | 47 | 50 | 0.0 | 0.0 | 0.00 | 0.00 | 0.00 | 89 | 1020.1 |
| 20260509015705 | 47 | 42 | 0.0 | 0.0 | 0.00 | 0.00 | 0.00 | 89 | 1020.1 |
| 20260509015512 | 47 | 38 | 0.0 | 0.0 | 0.00 | 0.00 | 0.00 | 89 | 1018.9 |
| 20260509015205 | 47 | 47 | 0.0 | 0.0 | 0.00 | 0.00 | 0.00 | 89 | 1020.1 |
| 20260509014705 | 47 | 47 | 0.0 | 0.0 | 0.00 | 0.00 | 0.00 | 89 | 1020.1 |
| 20260509014512 | 47 | 40 | 0.0 | 0.0 | 0.00 | 0.00 | 0.00 | 89 | 1019.0 |
| 20260509014206 | 47 | 40 | 0.0 | 0.0 | 0.00 | 0.00 | 0.00 | 89 | 1020.2 |
| 20260509013705 | 47 | 38 | 0.0 | 0.0 | 0.00 | 0.00 | 0.00 | 89 | 1020.2 |
| 20260509013512 | 47 | 81 | 0.0 | 0.0 | 0.00 | 0.00 | 0.00 | 89 | 1019.0 |
| 20260509013205 | 47 | 70 | 0.0 | 0.0 | 0.00 | 0.00 | 0.00 | 90 | 1020.1 |
| 20260509012705 | 47 | 44 | 0.0 | 0.0 | 0.00 | 0.00 | 0.00 | 90 | 1020.1 |
| 20260509012512 | 47 | 44 | 0.0 | 0.0 | 0.00 | 0.00 | 0.00 | 90 | 1018.9 |
| 20260509012206 | 47 | 43 | 0.0 | 0.0 | 0.00 | 0.00 | 0.00 | 91 | 1020.1 |
| 20260509011512 | 47 | 66 | 0.0 | 0.0 | 0.00 | 0.00 | 0.00 | 91 | 1018.8 |
| 20260509011205 | 47 | 64 | 0.0 | 0.0 | 0.00 | 0.00 | 0.00 | 91 | 1020.0 |
| 20260509010706 | 46 | 95 | 0.0 | 0.0 | 0.00 | 0.00 | 0.00 | 91 | 1020.0 |
| 20260509010512 | 46 | 95 | 0.0 | 0.0 | 0.00 | 0.00 | 0.00 | 91 | 1018.9 |
| 20260509010205 | 46 | 95 | 0.0 | 0.0 | 0.00 | 0.00 | 0.00 | 92 | 1020.0 |
| 20260509005705 | 46 | 95 | 0.0 | 0.0 | 0.00 | 0.00 | 0.00 | 92 | 1020.1 |
| 20260509005512 | 46 | 95 | 0.0 | 0.0 | 0.00 | 0.00 | 0.00 | 92 | 1018.9 |
| 20260509004705 | 45 | 95 | 0.0 | 0.0 | 0.00 | 0.00 | 0.00 | 92 | 1020.0 |
| 20260509004206 | 45 | 95 | 0.0 | 0.0 | 0.00 | 0.01 | 0.00 | 91 | 1019.9 |
| 20260509003512 | 44 | 95 | 0.0 | 0.0 | 0.00 | 0.00 | 0.00 | 91 | 1018.8 |
| 20260509002705 | 43 | 95 | 0.0 | 0.0 | 0.00 | 0.01 | 0.00 | 90 | 1019.9 |
| 20260509002512 | 43 | 95 | 0.0 | 0.0 | 0.00 | 0.00 | 0.00 | 90 | 1018.7 |
| 20260509002205 | 43 | 95 | 0.0 | 0.0 | 0.00 | 0.01 | 0.00 | 90 | 1019.9 |
| 20260509001706 | 43 | 95 | 0.0 | 0.0 | 0.00 | 0.01 | 0.00 | 90 | 1019.9 |
| 20260509001512 | 43 | 95 | 0.0 | 0.0 | 0.00 | 0.00 | 0.00 | 90 | 1018.8 |
| 20260509001205 | 43 | 95 | 0.0 | 0.0 | 0.00 | 0.01 | 0.00 | 90 | 1020.0 |
| 20260509000705 | 43 | 95 | 0.0 | 0.0 | 0.00 | 0.01 | 0.00 | 89 | 1020.0 |
| 20260508235705 | 43 | 95 | 0.0 | 0.0 | 0.00 | 0.01 | 0.00 | 89 | 1020.1 |
| 20260508235511 | 44 | 95 | 0.0 | 0.0 | 0.00 | 0.00 | 0.00 | 89 | 1018.9 |
| 20260508235205 | 44 | 95 | 0.0 | 0.0 | 0.00 | 0.01 | 0.00 | 89 | 1020.1 |
| 20260508233705 | 44 | 95 | 0.0 | 0.0 | 0.00 | 0.01 | 0.00 | 89 | 1020.1 |
| 20260508233511 | 44 | 95 | 0.0 | 0.0 | 0.00 | 0.00 | 0.00 | 89 | 1018.9 |
| 20260508233205 | 45 | 95 | 0.0 | 0.0 | 0.00 | 0.01 | 0.00 | 89 | 1020.0 |
| 20260508232706 | 45 | 95 | 0.0 | 0.0 | 0.00 | 0.01 | 0.00 | 89 | 1020.0 |
| 20260508232512 | 45 | 95 | 0.0 | 0.0 | 0.00 | 0.00 | 0.00 | 89 | 1018.9 |
| 20260508232205 | 45 | 95 | 0.0 | 0.0 | 0.00 | 0.01 | 0.00 | 89 | 1020.1 |
| 20260508231705 | 45 | 95 | 0.0 | 0.0 | 0.00 | 0.01 | 0.00 | 90 | 1020.1 |
| 20260508231512 | 45 | 95 | 0.0 | 0.0 | 0.00 | 0.00 | 0.00 | 90 | 1018.9 |
| 20260508231205 | 45 | 95 | 0.0 | 0.0 | 0.00 | 0.01 | 0.00 | 90 | 1020.1 |
| 20260508230705 | 45 | 95 | 0.0 | 0.0 | 0.00 | 0.01 | 0.00 | 90 | 1020.1 |
| 20260508230205 | 45 | 95 | 0.0 | 0.0 | 0.00 | 0.01 | 0.00 | 89 | 1020.0 |
| 20260508225706 | 44 | 95 | 0.0 | 0.0 | 0.00 | 0.01 | 0.00 | 89 | 1020.0 |
| 20260508225512 | 44 | 95 | 0.0 | 0.0 | 0.00 | 0.00 | 0.00 | 88 | 1018.9 |
| 20260508225205 | 45 | 95 | 0.0 | 0.0 | 0.00 | 0.01 | 0.00 | 88 | 1020.0 |
| 20260508224705 | 45 | 95 | 0.0 | 0.0 | 0.00 | 0.01 | 0.00 | 88 | 1020.0 |
| 20260508224511 | 45 | 95 | 0.0 | 0.0 | 0.00 | 0.00 | 0.00 | 88 | 1018.8 |
| 20260508224205 | 45 | 95 | 0.0 | 0.0 | 0.00 | 0.01 | 0.00 | 88 | 1020.0 |
| 20260508223705 | 45 | 95 | 0.0 | 0.0 | 0.00 | 0.01 | 0.00 | 88 | 1020.1 |
| 20260508223511 | 45 | 95 | 0.0 | 0.0 | 0.00 | 0.00 | 0.00 | 88 | 1018.9 |
| 20260508223205 | 45 | 95 | 0.0 | 0.0 | 0.00 | 0.01 | 0.00 | 88 | 1020.1 |
| 20260508222706 | 46 | 95 | 0.0 | 0.0 | 0.00 | 0.01 | 0.00 | 88 | 1020.1 |
| 20260508222511 | 46 | 95 | 0.0 | 0.0 | 0.00 | 0.00 | 0.00 | 88 | 1018.9 |
| 20260508222206 | 46 | 95 | 0.0 | 0.0 | 0.00 | 0.01 | 0.00 | 88 | 1020.1 |
| 20260508221706 | 46 | 95 | 0.0 | 0.0 | 0.00 | 0.01 | 0.00 | 88 | 1020.2 |
| 20260508221511 | 46 | 95 | 0.0 | 0.0 | 0.00 | 0.00 | 0.00 | 88 | 1019.0 |
| 20260508221205 | 46 | 95 | 0.0 | 0.0 | 0.00 | 0.01 | 0.00 | 88 | 1020.1 |
| 20260508220705 | 46 | 95 | 0.0 | 0.0 | 0.00 | 0.01 | 0.00 | 88 | 1020.0 |
| 20260508220511 | 46 | 95 | 0.0 | 0.0 | 0.00 | 0.00 | 0.00 | 88 | 1018.9 |
| 20260508220205 | 46 | 95 | 0.0 | 0.0 | 0.00 | 0.01 | 0.00 | 88 | 1020.0 |
| 20260508215705 | 46 | 95 | 0.0 | 0.0 | 0.00 | 0.01 | 0.01 | 87 | 1020.0 |
| 20260508215512 | 46 | 95 | 0.0 | 0.0 | 0.00 | 0.01 | 0.01 | 87 | 1018.9 |
| 20260508215205 | 46 | 95 | 0.0 | 0.0 | 0.00 | 0.01 | 0.01 | 86 | 1020.0 |
| 20260508214705 | 46 | 95 | 0.0 | 0.0 | 0.00 | 0.01 | 0.01 | 86 | 1020.0 |
| 20260508214205 | 46 | 95 | 0.0 | 0.0 | 0.00 | 0.01 | 0.01 | 86 | 1020.0 |
| 20260508213705 | 46 | 95 | 0.0 | 0.0 | 0.00 | 0.01 | 0.01 | 86 | 1020.0 |
| 20260508213511 | 46 | 95 | 0.0 | 0.0 | 0.00 | 0.01 | 0.01 | 85 | 1018.9 |
| 20260508213205 | 46 | 95 | 0.0 | 0.0 | 0.00 | 0.01 | 0.01 | 85 | 1020.0 |
| 20260508212705 | 47 | 95 | 0.0 | 0.0 | 0.00 | 0.01 | 0.01 | 85 | 1020.0 |
| 20260508212511 | 47 | 95 | 0.0 | 0.0 | 0.00 | 0.01 | 0.01 | 85 | 1018.9 |
| 20260508212205 | 47 | 95 | 0.0 | 0.0 | 0.00 | 0.01 | 0.01 | 85 | 1020.0 |
| 20260508211705 | 47 | 95 | 0.0 | 0.0 | 0.00 | 0.01 | 0.01 | 85 | 1019.9 |
| 20260508211511 | 47 | 95 | 0.0 | 0.0 | 0.00 | 0.01 | 0.01 | 85 | 1018.8 |
| 20260508211205 | 47 | 95 | 0.0 | 0.0 | 0.00 | 0.01 | 0.01 | 84 | 1019.9 |
| 20260508210705 | 48 | 95 | 0.0 | 0.0 | 0.00 | 0.01 | 0.01 | 84 | 1019.9 |
| 20260508210511 | 48 | 95 | 0.0 | 0.0 | 0.00 | 0.01 | 0.01 | 84 | 1018.9 |
| 20260508210205 | 48 | 95 | 0.0 | 0.0 | 0.00 | 0.01 | 0.01 | 84 | 1019.9 |
| 20260508205205 | 48 | 95 | 0.0 | 0.0 | 0.00 | 0.01 | 0.01 | 84 | 1019.9 |
| 20260508204705 | 48 | 95 | 0.0 | 0.0 | 0.00 | 0.01 | 0.01 | 83 | 1019.8 |
| 20260508204205 | 49 | 95 | 0.0 | 0.0 | 0.00 | 0.01 | 0.01 | 82 | 1019.8 |
| 20260508203705 | 49 | 95 | 0.0 | 0.0 | 0.00 | 0.01 | 0.01 | 82 | 1019.8 |
| 20260508203512 | 49 | 95 | 0.0 | 0.0 | 0.00 | 0.01 | 0.01 | 82 | 1018.8 |
| 20260508203205 | 49 | 95 | 0.0 | 0.0 | 0.00 | 0.01 | 0.01 | 82 | 1019.8 |
| 20260508202511 | 49 | 95 | 0.0 | 0.0 | 0.00 | 0.01 | 0.01 | 82 | 1018.7 |
| 20260508202205 | 49 | 95 | 0.0 | 0.0 | 0.00 | 0.01 | 0.01 | 81 | 1019.7 |
| 20260508201705 | 50 | 95 | 0.0 | 0.0 | 0.00 | 0.01 | 0.01 | 80 | 1019.7 |
| 20260508201511 | 50 | 95 | 0.0 | 0.0 | 0.00 | 0.01 | 0.01 | 78 | 1018.7 |
| 20260508201205 | 50 | 95 | 0.0 | 0.0 | 0.00 | 0.01 | 0.01 | 80 | 1019.7 |
| 20260508200705 | 50 | 95 | 0.0 | 0.0 | 0.00 | 0.01 | 0.01 | 79 | 1019.7 |
| 20260508200205 | 51 | 95 | 0.0 | 0.0 | 0.00 | 0.01 | 0.01 | 78 | 1019.7 |
| 20260508195705 | 51 | 95 | 0.0 | 0.0 | 0.00 | 0.01 | 0.01 | 78 | 1019.7 |
| 20260508195512 | 51 | 95 | 0.0 | 0.0 | 0.00 | 0.01 | 0.01 | 78 | 1018.7 |
| 20260508195205 | 52 | 95 | 0.0 | 0.0 | 0.00 | 0.01 | 0.01 | 78 | 1019.7 |
| 20260508194511 | 52 | 95 | 0.0 | 0.0 | 0.00 | 0.01 | 0.01 | 77 | 1018.7 |
| 20260508193705 | 53 | 95 | 0.0 | 0.0 | 0.00 | 0.01 | 0.01 | 76 | 1019.7 |
| 20260508193511 | 53 | 95 | 0.0 | 0.0 | 0.00 | 0.01 | 0.01 | 76 | 1018.7 |
| 20260508193205 | 53 | 95 | 0.0 | 0.0 | 0.00 | 0.01 | 0.01 | 76 | 1019.7 |
| 20260508192705 | 53 | 95 | 0.0 | 0.0 | 0.00 | 0.01 | 0.01 | 75 | 1019.7 |
| 20260508192205 | 53 | 95 | 0.0 | 0.0 | 0.00 | 0.01 | 0.01 | 74 | 1019.5 |
| 20260508191511 | 54 | 92 | 0.0 | 1.0 | 0.00 | 0.01 | 0.01 | 72 | 1018.4 |
| 20260508190705 | 55 | 106 | 0.0 | 0.0 | 0.00 | 0.01 | 0.01 | 71 | 1019.3 |
| 20260508190511 | 55 | 106 | 0.0 | 0.0 | 0.00 | 0.01 | 0.01 | 71 | 1018.3 |
| 20260508190205 | 55 | 106 | 0.0 | 0.0 | 0.00 | 0.01 | 0.01 | 70 | 1019.2 |
| 20260508185705 | 55 | 99 | 0.0 | 0.0 | 0.00 | 0.01 | 0.01 | 70 | 1019.2 |
| 20260508185511 | 56 | 88 | 0.0 | 0.0 | 0.00 | 0.01 | 0.01 | 70 | 1018.2 |
| 20260508184511 | 56 | 103 | 0.0 | 0.0 | 0.00 | 0.01 | 0.01 | 68 | 1017.9 |
| 20260508184205 | 56 | 95 | 0.0 | 3.0 | 0.00 | 0.01 | 0.01 | 68 | 1019.0 |
| 20260508183705 | 56 | 109 | 0.0 | 0.0 | 0.00 | 0.01 | 0.01 | 67 | 1019.0 |
| 20260508183511 | 56 | 113 | 0.0 | 2.0 | 0.00 | 0.01 | 0.01 | 67 | 1018.0 |
| 20260508183205 | 57 | 96 | 0.0 | 2.0 | 0.00 | 0.01 | 0.01 | 67 | 1019.0 |
| 20260508182511 | 56 | 83 | 0.0 | 0.0 | 0.00 | 0.01 | 0.01 | 68 | 1017.9 |
| 20260508182205 | 56 | 86 | 0.0 | 1.0 | 0.00 | 0.01 | 0.01 | 68 | 1018.9 |
| 20260508181204 | 56 | 107 | 0.0 | 0.0 | 0.00 | 0.01 | 0.01 | 69 | 1018.8 |
| 20260508180705 | 56 | 107 | 0.0 | 0.0 | 0.00 | 0.01 | 0.01 | 68 | 1018.8 |
| 20260508180510 | 56 | 107 | 0.0 | 0.0 | 0.00 | 0.01 | 0.01 | 68 | 1017.8 |
| 20260508175705 | 57 | 100 | 0.0 | 3.0 | 0.00 | 0.01 | 0.01 | 67 | 1018.7 |
| 20260508175514 | 57 | 88 | 0.0 | 0.0 | 0.00 | 0.01 | 0.01 | 67 | 1017.6 |
| 20260508175205 | 57 | 94 | 0.0 | 0.0 | 0.00 | 0.01 | 0.01 | 67 | 1018.7 |
| 20260508174705 | 57 | 99 | 0.0 | 0.0 | 0.00 | 0.01 | 0.01 | 66 | 1018.7 |
| 20260508174204 | 57 | 120 | 0.0 | 0.0 | 0.00 | 0.01 | 0.01 | 65 | 1018.6 |
| 20260508173511 | 58 | 96 | 0.0 | 1.0 | 0.00 | 0.01 | 0.01 | 64 | 1017.5 |
| 20260508173204 | 58 | 107 | 0.0 | 1.0 | 0.00 | 0.01 | 0.01 | 64 | 1018.6 |
| 20260508172705 | 58 | 100 | 0.0 | 1.0 | 0.00 | 0.01 | 0.01 | 65 | 1018.6 |
| 20260508172511 | 58 | 94 | 0.0 | 1.0 | 0.00 | 0.01 | 0.01 | 65 | 1017.5 |
| 20260508172205 | 58 | 99 | 0.0 | 1.0 | 0.00 | 0.01 | 0.01 | 66 | 1018.6 |
| 20260508171705 | 59 | 104 | 0.0 | 6.0 | 0.00 | 0.01 | 0.01 | 64 | 1018.6 |
| 20260508171511 | 59 | 82 | 0.0 | 6.0 | 0.00 | 0.01 | 0.01 | 64 | 1017.4 |
| 20260508171205 | 59 | 106 | 1.0 | 3.0 | 0.00 | 0.01 | 0.01 | 64 | 1018.6 |
| 20260508170705 | 59 | 111 | 0.0 | 0.0 | 0.00 | 0.01 | 0.01 | 64 | 1018.5 |
| 20260508170511 | 59 | 111 | 0.0 | 2.0 | 0.00 | 0.01 | 0.01 | 64 | 1017.4 |
| 20260508170205 | 59 | 97 | 1.0 | 3.0 | 0.00 | 0.01 | 0.01 | 62 | 1018.5 |
| 20260508165511 | 60 | 148 | 0.0 | 1.0 | 0.00 | 0.01 | 0.01 | 61 | 1017.3 |
| 20260508165205 | 60 | 151 | 0.0 | 0.0 | 0.00 | 0.01 | 0.01 | 62 | 1018.4 |
| 20260508164704 | 60 | 181 | 0.0 | 0.0 | 0.00 | 0.01 | 0.01 | 62 | 1018.4 |
| 20260508164511 | 60 | 205 | 0.0 | 0.0 | 0.00 | 0.01 | 0.01 | 62 | 1017.3 |
| 20260508164205 | 59 | 92 | 0.0 | 0.0 | 0.00 | 0.01 | 0.01 | 60 | 1018.4 |
| 20260508163704 | 59 | 139 | 0.0 | 0.0 | 0.00 | 0.01 | 0.01 | 60 | 1018.4 |
| 20260508163510 | 59 | 154 | 0.0 | 0.0 | 0.00 | 0.01 | 0.01 | 60 | 1017.3 |
| 20260508163205 | 59 | 187 | 0.0 | 0.0 | 0.00 | 0.01 | 0.01 | 60 | 1018.4 |
| 20260508162705 | 60 | 96 | 0.0 | 0.0 | 0.00 | 0.01 | 0.01 | 58 | 1018.3 |
| 20260508162511 | 61 | 101 | 0.0 | 1.0 | 0.00 | 0.01 | 0.01 | 58 | 1017.2 |
| 20260508162204 | 60 | 84 | 0.0 | 1.0 | 0.00 | 0.01 | 0.01 | 59 | 1018.2 |
| 20260508161704 | 60 | 138 | 0.0 | 0.0 | 0.00 | 0.01 | 0.01 | 58 | 1018.3 |
| 20260508161205 | 60 | 135 | 0.0 | 3.0 | 0.00 | 0.01 | 0.01 | 57 | 1018.3 |
| 20260508160205 | 62 | 89 | 0.0 | 1.0 | 0.00 | 0.01 | 0.01 | 49 | 1018.2 |
| 20260508155704 | 62 | 81 | 0.0 | 0.0 | 0.00 | 0.01 | 0.01 | 47 | 1018.3 |
| 20260508155511 | 62 | 92 | 0.0 | 0.0 | 0.00 | 0.01 | 0.01 | 46 | 1017.1 |
| 20260508155205 | 61 | 148 | 0.0 | 0.0 | 0.00 | 0.01 | 0.01 | 49 | 1018.2 |
| 20260508154705 | 61 | 73 | 0.0 | 0.0 | 0.00 | 0.01 | 0.01 | 48 | 1018.3 |
| 20260508154511 | 61 | 90 | 0.0 | 0.0 | 0.00 | 0.01 | 0.01 | 49 | 1017.2 |
| 20260508154204 | 62 | 98 | 0.0 | 0.0 | 0.00 | 0.01 | 0.01 | 49 | 1018.3 |
| 20260508153704 | 62 | 94 | 0.0 | 1.0 | 0.00 | 0.01 | 0.01 | 46 | 1018.3 |
| 20260508153510 | 62 | 92 | 0.0 | 7.0 | 0.00 | 0.01 | 0.01 | 47 | 1017.2 |
| 20260508153204 | 62 | 105 | 0.0 | 5.0 | 0.00 | 0.01 | 0.01 | 47 | 1018.4 |
| 20260508152511 | 61 | 97 | 0.0 | 0.0 | 0.00 | 0.01 | 0.01 | 48 | 1017.3 |
| 20260508151705 | 62 | 106 | 0.0 | 0.0 | 0.00 | 0.01 | 0.01 | 47 | 1018.4 |
| 20260508151511 | 62 | 151 | 0.0 | 1.0 | 0.00 | 0.01 | 0.01 | 48 | 1017.3 |
| 20260508151205 | 62 | 43 | 0.0 | 0.0 | 0.00 | 0.01 | 0.01 | 48 | 1018.4 |
| 20260508150704 | 61 | 48 | 0.0 | 1.0 | 0.00 | 0.01 | 0.01 | 50 | 1018.4 |
| 20260508150511 | 61 | 71 | 0.0 | 0.0 | 0.00 | 0.01 | 0.01 | 50 | 1017.3 |
| 20260508150205 | 61 | 95 | 0.0 | 2.0 | 0.00 | 0.01 | 0.01 | 47 | 1018.5 |
| 20260508145705 | 62 | 80 | 0.0 | 2.0 | 0.00 | 0.01 | 0.01 | 48 | 1018.5 |
| 20260508145511 | 62 | 81 | 0.0 | 0.0 | 0.00 | 0.01 | 0.01 | 47 | 1017.4 |
| 20260508145205 | 62 | 92 | 0.0 | 3.0 | 0.00 | 0.01 | 0.01 | 46 | 1018.4 |
| 20260508144705 | 62 | 98 | 0.0 | 2.0 | 0.00 | 0.01 | 0.01 | 50 | 1018.5 |
| 20260508144511 | 61 | 92 | 0.0 | 2.0 | 0.00 | 0.01 | 0.01 | 49 | 1017.4 |
| 20260508143704 | 61 | 78 | 0.0 | 1.0 | 0.00 | 0.01 | 0.01 | 49 | 1018.5 |
| 20260508143511 | 61 | 83 | 0.0 | 1.0 | 0.00 | 0.01 | 0.01 | 50 | 1017.4 |
| 20260508143204 | 61 | 79 | 0.0 | 3.0 | 0.00 | 0.01 | 0.01 | 50 | 1018.5 |
| 20260508142705 | 62 | 56 | 1.0 | 6.0 | 0.00 | 0.01 | 0.01 | 47 | 1018.5 |
| 20260508142510 | 62 | 140 | 0.0 | 6.0 | 0.00 | 0.01 | 0.01 | 48 | 1017.4 |
| 20260508142205 | 62 | 72 | 0.0 | 1.0 | 0.00 | 0.01 | 0.01 | 50 | 1018.5 |
| 20260508141705 | 62 | 109 | 0.0 | 2.0 | 0.00 | 0.01 | 0.01 | 47 | 1018.5 |
| 20260508141510 | 62 | 102 | 0.0 | 6.0 | 0.00 | 0.01 | 0.01 | 47 | 1017.5 |
| 20260508141204 | 61 | 121 | 1.0 | 7.0 | 0.00 | 0.01 | 0.01 | 49 | 1018.6 |
| 20260508140705 | 61 | 70 | 0.0 | 2.0 | 0.00 | 0.01 | 0.01 | 51 | 1018.6 |
| 20260508140205 | 61 | 76 | 0.0 | 8.0 | 0.00 | 0.01 | 0.01 | 48 | 1018.6 |
| 20260508135704 | 62 | 85 | 2.0 | 8.0 | 0.00 | 0.01 | 0.01 | 47 | 1018.5 |
| 20260508135205 | 62 | 77 | 0.0 | 7.0 | 0.00 | 0.01 | 0.01 | 49 | 1018.6 |
| 20260508134704 | 61 | 93 | 0.0 | 2.0 | 0.00 | 0.01 | 0.01 | 49 | 1018.6 |
| 20260508134206 | 61 | 51 | 3.0 | 12.0 | 0.00 | 0.01 | 0.01 | 50 | 1018.7 |
| 20260508133511 | 61 | 42 | 1.0 | 11.0 | 0.00 | 0.01 | 0.01 | 50 | 1017.6 |
| 20260508133204 | 61 | 93 | 0.0 | 3.0 | 0.00 | 0.01 | 0.01 | 50 | 1018.7 |
| 20260508132704 | 60 | 104 | 0.0 | 3.0 | 0.00 | 0.01 | 0.01 | 49 | 1018.7 |
| 20260508132511 | 60 | 106 | 0.0 | 4.0 | 0.00 | 0.01 | 0.01 | 48 | 1017.6 |
| 20260508132205 | 60 | 79 | 0.0 | 3.0 | 0.00 | 0.01 | 0.01 | 49 | 1018.8 |
| 20260508131704 | 62 | 78 | 0.0 | 2.0 | 0.00 | 0.01 | 0.01 | 47 | 1018.7 |
| 20260508131510 | 62 | 88 | 0.0 | 4.0 | 0.00 | 0.01 | 0.01 | 49 | 1017.6 |
| 20260508130705 | 61 | 34 | 0.0 | 3.0 | 0.00 | 0.01 | 0.01 | 50 | 1018.7 |
| 20260508130205 | 60 | 74 | 1.0 | 8.0 | 0.00 | 0.01 | 0.01 | 53 | 1018.8 |
| 20260508125705 | 61 | 41 | 1.0 | 3.0 | 0.00 | 0.01 | 0.01 | 50 | 1018.9 |
| 20260508125510 | 61 | 58 | 0.0 | 3.0 | 0.00 | 0.01 | 0.01 | 51 | 1017.9 |
| 20260508125204 | 61 | 101 | 0.0 | 2.0 | 0.00 | 0.01 | 0.01 | 50 | 1019.0 |
| 20260508124704 | 61 | 93 | 0.0 | 1.0 | 0.00 | 0.01 | 0.01 | 49 | 1019.1 |
| 20260508124510 | 61 | 110 | 0.0 | 1.0 | 0.00 | 0.01 | 0.01 | 49 | 1018.0 |
| 20260508123704 | 61 | 98 | 0.0 | 5.0 | 0.00 | 0.01 | 0.01 | 50 | 1019.1 |
| 20260508123510 | 61 | 92 | 0.0 | 5.0 | 0.00 | 0.01 | 0.01 | 50 | 1018.0 |
| 20260508123205 | 61 | 56 | 0.0 | 7.0 | 0.00 | 0.01 | 0.01 | 52 | 1019.1 |
| 20260508122704 | 61 | 70 | 2.0 | 14.0 | 0.00 | 0.01 | 0.01 | 52 | 1019.1 |
| 20260508122510 | 61 | 89 | 0.0 | 14.0 | 0.00 | 0.01 | 0.01 | 52 | 1018.0 |
| 20260508122205 | 61 | 69 | 1.0 | 7.0 | 0.00 | 0.01 | 0.01 | 51 | 1019.1 |
| 20260508121704 | 60 | 90 | 0.0 | 1.0 | 0.00 | 0.01 | 0.01 | 50 | 1019.1 |
| 20260508121205 | 60 | 71 | 0.0 | 3.0 | 0.00 | 0.01 | 0.01 | 50 | 1019.2 |
| 20260508120704 | 61 | 83 | 1.0 | 9.0 | 0.00 | 0.01 | 0.01 | 50 | 1019.1 |
| 20260508120510 | 61 | 40 | 1.0 | 9.0 | 0.00 | 0.01 | 0.01 | 51 | 1018.1 |
| 20260508120205 | 61 | 93 | 0.0 | 2.0 | 0.00 | 0.01 | 0.01 | 54 | 1019.2 |
| 20260508115705 | 60 | 85 | 0.0 | 2.0 | 0.00 | 0.01 | 0.01 | 53 | 1019.2 |
| 20260508115511 | 60 | 76 | 0.0 | 7.0 | 0.00 | 0.01 | 0.01 | 52 | 1018.1 |
| 20260508115205 | 60 | 71 | 2.0 | 6.0 | 0.00 | 0.01 | 0.01 | 52 | 1019.3 |
| 20260508114704 | 60 | 97 | 0.0 | 12.0 | 0.00 | 0.01 | 0.01 | 53 | 1019.3 |
| 20260508113705 | 59 | 54 | 0.0 | 3.0 | 0.00 | 0.01 | 0.01 | 54 | 1019.2 |
| 20260508113204 | 59 | 59 | 0.0 | 5.0 | 0.00 | 0.01 | 0.01 | 53 | 1019.3 |
| 20260508112704 | 59 | 56 | 1.0 | 8.0 | 0.00 | 0.01 | 0.01 | 53 | 1019.3 |
| 20260508112510 | 59 | 88 | 0.0 | 8.0 | 0.00 | 0.01 | 0.01 | 55 | 1018.2 |
| 20260508112204 | 59 | 73 | 0.0 | 1.0 | 0.00 | 0.01 | 0.01 | 51 | 1019.4 |
| 20260508111205 | 59 | 56 | 0.0 | 3.0 | 0.00 | 0.01 | 0.01 | 53 | 1019.4 |
| 20260508110705 | 59 | 99 | 1.0 | 10.0 | 0.00 | 0.01 | 0.01 | 54 | 1019.4 |
| 20260508110510 | 59 | 72 | 2.0 | 11.0 | 0.00 | 0.01 | 0.01 | 52 | 1018.3 |
| 20260508105705 | 59 | 93 | 1.0 | 9.0 | 0.00 | 0.01 | 0.01 | 57 | 1019.4 |
| 20260508105510 | 59 | 22 | 0.0 | 5.0 | 0.00 | 0.01 | 0.01 | 56 | 1018.2 |
| 20260508105204 | 59 | 79 | 1.0 | 6.0 | 0.00 | 0.01 | 0.01 | 55 | 1019.4 |
| 20260508104704 | 59 | 98 | 0.0 | 0.0 | 0.00 | 0.01 | 0.01 | 57 | 1019.4 |
| 20260508104510 | 59 | 71 | 0.0 | 0.0 | 0.00 | 0.01 | 0.01 | 56 | 1018.3 |
| 20260508104205 | 59 | 80 | 0.0 | 2.0 | 0.00 | 0.01 | 0.01 | 54 | 1019.5 |
| 20260508103704 | 59 | 84 | 0.0 | 8.0 | 0.00 | 0.01 | 0.01 | 57 | 1019.4 |
| 20260508103204 | 59 | 342 | 0.0 | 3.0 | 0.00 | 0.01 | 0.01 | 57 | 1019.4 |
| 20260508102705 | 58 | 86 | 0.0 | 2.0 | 0.00 | 0.01 | 0.01 | 56 | 1019.5 |